DW5684 Weather Reports


Display with metric or nautical units.
time (UTC)temp
F
wind
direction
speed
MPH
gust
MPH
rain 1hr
in
rain 24hr
in
rain mn
in
humidity
%
barometer
mb
20260509191819 84 217 1.0 5.0 0.00 0.01 0.01 33 1011.0
20260509191314 84 218 0.0 3.0 0.00 0.01 0.01 37 1011.0
20260509190849 82 195 0.0 6.0 0.00 0.01 0.01 38 1011.0
20260509190322 82 25 1.0 6.0 0.00 0.01 0.01 45 1010.9
20260509185818 82 274 0.0 4.0 0.00 0.01 0.01 38 1011.0
20260509185353 82 330 0.0 5.0 0.00 0.01 0.01 37 1011.0
20260509184827 81 331 2.0 8.0 0.00 0.01 0.01 40 1011.1
20260509184326 82 311 2.0 8.0 0.00 0.01 0.01 36 1011.1
20260509183820 82 274 0.0 5.0 0.00 0.01 0.01 36 1011.1
20260509183314 82 203 1.0 6.0 0.00 0.01 0.01 42 1011.1
20260509182829 82 278 1.0 6.0 0.00 0.01 0.01 39 1011.2
20260509182324 81 264 0.0 9.0 0.00 0.01 0.01 40 1011.1
20260509181839 82 281 2.0 9.0 0.00 0.01 0.01 38 1011.1
20260509181332 82 186 0.0 3.0 0.00 0.01 0.01 37 1011.2
20260509180825 81 203 0.0 6.0 0.00 0.01 0.01 42 1011.2
20260509180340 81 294 1.0 8.0 0.00 0.01 0.01 45 1011.2
20260509175818 80 352 1.0 7.0 0.00 0.01 0.01 43 1011.2
20260509175313 80 289 2.0 7.0 0.00 0.01 0.01 41 1011.2
20260509174828 81 322 3.0 7.0 0.00 0.01 0.01 45 1011.3
20260509174323 80 295 1.0 5.0 0.00 0.01 0.01 44 1011.4
20260509173837 79 294 2.0 9.0 0.00 0.01 0.01 43 1011.3
20260509173331 79 329 5.0 9.0 0.00 0.01 0.01 41 1011.4
20260509172826 79 259 2.0 7.0 0.00 0.01 0.01 43 1011.6
20260509172320 79 333 3.0 8.0 0.00 0.01 0.01 43 1011.6
20260509171818 79 281 3.0 7.0 0.00 0.01 0.01 42 1011.6
20260509171333 79 58 2.0 5.0 0.00 0.01 0.01 43 1011.6
20260509170828 79 284 1.0 4.0 0.00 0.01 0.01 47 1011.5
20260509170322 79 342 2.0 4.0 0.00 0.01 0.01 47 1011.5
20260509165817 79 8 0.0 5.0 0.00 0.01 0.01 46 1011.6
20260509165332 78 332 3.0 5.0 0.00 0.01 0.01 47 1011.6
20260509164827 79 255 2.0 5.0 0.00 0.01 0.01 45 1011.7
20260509164325 79 276 2.0 3.0 0.00 0.01 0.01 44 1011.7
20260509163820 79 234 0.0 3.0 0.00 0.01 0.01 47 1011.7
20260509163315 78 281 0.0 3.0 0.00 0.01 0.01 51 1011.7
20260509162850 78 287 2.0 4.0 0.00 0.01 0.01 50 1011.8
20260509162322 78 305 1.0 5.0 0.00 0.01 0.01 49 1011.8
20260509161837 78 330 1.0 5.0 0.00 0.01 0.01 53 1011.8
20260509161331 78 311 0.0 4.0 0.00 0.01 0.01 53 1011.8
20260509160826 78 240 0.0 4.0 0.00 0.01 0.01 53 1011.8
20260509160341 77 210 0.0 4.0 0.00 0.01 0.01 55 1011.8
20260509155819 77 212 1.0 4.0 0.00 0.01 0.01 55 1011.9
20260509155314 77 280 0.0 3.0 0.00 0.01 0.01 57 1011.9
20260509154829 76 222 1.0 3.0 0.00 0.01 0.01 57 1011.9
20260509154324 75 215 0.0 2.0 0.00 0.01 0.01 61 1011.8
20260509153819 75 289 1.0 4.0 0.00 0.01 0.01 60 1011.9
20260509153314 74 212 1.0 4.0 0.00 0.01 0.01 63 1011.8
20260509152348 74 293 0.0 3.0 0.00 0.01 0.01 66 1011.7
20260509151840 73 283 0.0 3.0 0.00 0.01 0.01 64 1011.8
20260509151318 73 315 0.0 3.0 0.00 0.01 0.01 67 1011.8
20260509150832 73 287 0.0 8.0 0.00 0.01 0.01 64 1011.7
20260509150327 73 276 1.0 5.0 0.00 0.01 0.01 62 1011.7
20260509145822 73 283 0.0 3.0 0.00 0.01 0.01 66 1011.7
20260509145316 72 195 0.0 6.0 0.00 0.01 0.01 67 1011.7
20260509144831 71 297 0.0 2.0 0.00 0.01 0.01 71 1011.7
20260509144346 71 293 0.0 4.0 0.00 0.01 0.01 68 1011.8
20260509143820 71 337 1.0 4.0 0.00 0.01 0.01 69 1011.8
20260509143317 71 217 1.0 4.0 0.00 0.01 0.01 71 1011.8
20260509142832 70 277 0.0 4.0 0.00 0.01 0.01 72 1011.7
20260509142327 70 226 1.0 3.0 0.00 0.01 0.01 74 1011.7
20260509141822 70 217 1.0 3.0 0.00 0.01 0.01 75 1011.7
20260509141316 69 224 1.0 3.0 0.00 0.01 0.01 75 1011.6
20260509140831 69 221 0.0 2.0 0.00 0.01 0.01 80 1011.6
20260509140325 69 259 1.0 2.0 0.00 0.01 0.01 81 1011.6
20260509135818 68 239 0.0 3.0 0.00 0.01 0.01 81 1011.5
20260509135313 67 241 1.0 3.0 0.00 0.01 0.01 82 1011.5
20260509134831 67 203 1.0 3.0 0.00 0.01 0.01 82 1011.4
20260509134326 66 219 1.0 3.0 0.00 0.01 0.01 83 1011.4
20260509133841 66 230 0.0 2.0 0.00 0.01 0.01 85 1011.4
20260509133315 65 278 0.0 1.0 0.00 0.01 0.01 87 1011.5
20260509132830 65 220 0.0 1.0 0.00 0.01 0.01 87 1011.5
20260509132323 64 198 0.0 3.0 0.00 0.01 0.01 90 1011.4
20260509131817 63 215 1.0 3.0 0.00 0.01 0.01 90 1011.4
20260509131332 62 208 1.0 4.0 0.00 0.01 0.01 90 1011.2
20260509130826 62 210 2.0 4.0 0.00 0.01 0.01 90 1011.2
20260509130325 62 288 0.0 4.0 0.00 0.01 0.01 91 1011.2
20260509125819 61 226 2.0 4.0 0.00 0.01 0.01 91 1011.3
20260509125314 61 224 1.0 3.0 0.00 0.01 0.01 92 1011.3
20260509124828 61 217 1.0 3.0 0.00 0.01 0.01 93 1011.3
20260509124343 60 214 0.0 2.0 0.00 0.01 0.01 94 1011.3
20260509123816 59 211 1.0 2.0 0.00 0.01 0.01 95 1011.1
20260509123331 58 215 0.0 0.0 0.00 0.01 0.01 96 1011.1
20260509122826 58 210 0.0 0.0 0.00 0.01 0.01 97 1011.1
20260509122344 57 215 0.0 1.0 0.00 0.01 0.01 97 1011.0
20260509121838 56 228 0.0 2.0 0.00 0.01 0.01 97 1011.0
20260509121332 56 225 0.0 3.0 0.00 0.01 0.01 97 1010.9
20260509120827 56 221 0.0 3.0 0.00 0.01 0.01 97 1011.0
20260509120342 55 216 1.0 3.0 0.00 0.01 0.01 97 1010.9
20260509115815 55 228 0.0 0.0 0.00 0.01 0.01 97 1010.8
20260509115330 55 230 0.0 0.0 0.00 0.01 0.01 97 1010.8
20260509114824 55 226 0.0 2.0 0.00 0.01 0.01 97 1010.9
20260509114318 55 205 0.0 2.0 0.00 0.01 0.01 97 1010.8
20260509113817 55 227 1.0 2.0 0.00 0.01 0.01 97 1010.8
20260509113332 55 223 0.0 3.0 0.00 0.01 0.01 96 1010.8
20260509112827 55 226 0.0 1.0 0.00 0.01 0.01 96 1010.8
20260509112321 55 226 0.0 0.0 0.00 0.01 0.01 96 1010.7
20260509111816 55 225 0.0 0.0 0.00 0.01 0.01 96 1010.6
20260509111331 55 218 0.0 0.0 0.00 0.01 0.01 96 1010.6
20260509110825 55 228 0.0 1.0 0.00 0.01 0.01 96 1010.6
20260509110323 56 228 0.0 2.0 0.00 0.01 0.01 96 1010.5
20260509105818 56 225 1.0 3.0 0.00 0.01 0.01 97 1010.6
20260509105314 56 207 1.0 3.0 0.00 0.01 0.01 97 1010.6
20260509104828 56 226 0.0 3.0 0.00 0.01 0.01 97 1010.6
20260509104323 56 229 1.0 3.0 0.00 0.01 0.01 97 1010.6
20260509103818 56 224 2.0 3.0 0.00 0.01 0.01 97 1010.6
20260509103314 56 215 1.0 3.0 0.00 0.01 0.01 97 1010.5
20260509102813 55 221 1.0 2.0 0.00 0.01 0.01 97 1010.5
20260509102328 55 222 0.0 1.0 0.00 0.01 0.01 97 1010.5
20260509101823 55 222 0.0 1.0 0.00 0.01 0.01 97 1010.5
20260509101317 55 219 0.0 2.0 0.00 0.01 0.01 97 1010.5
20260509100911 55 218 0.0 1.0 0.00 0.01 0.01 97 1010.4
20260509100318 55 214 0.0 0.0 0.00 0.01 0.01 96 1010.5
20260509095831 55 211 0.0 1.0 0.00 0.01 0.01 96 1010.5
20260509095345 55 223 0.0 3.0 0.00 0.01 0.01 96 1010.6
20260509094819 55 221 1.0 3.0 0.00 0.01 0.01 96 1010.7
20260509094313 55 227 0.0 0.0 0.00 0.01 0.01 96 1010.7
20260509093828 54 226 0.0 0.0 0.00 0.01 0.01 96 1010.6
20260509093327 54 225 0.0 1.0 0.00 0.01 0.01 96 1010.7
20260509092822 55 226 0.0 2.0 0.00 0.01 0.01 96 1010.7
20260509092317 55 214 0.0 2.0 0.00 0.01 0.01 96 1010.8
20260509091830 55 217 0.0 2.0 0.00 0.01 0.01 96 1010.7
20260509091345 55 218 1.0 2.0 0.00 0.01 0.01 95 1010.7
20260509090819 55 227 0.0 0.0 0.00 0.01 0.01 95 1010.7
20260509090333 55 209 0.0 2.0 0.00 0.01 0.01 95 1010.7
20260509085828 55 219 1.0 2.0 0.00 0.01 0.01 95 1010.6
20260509085322 55 216 0.0 0.0 0.00 0.01 0.01 95 1010.7
20260509084821 55 229 0.0 3.0 0.00 0.01 0.01 96 1010.6
20260509084316 55 217 0.0 3.0 0.00 0.01 0.01 96 1010.6
20260509083830 55 219 0.0 2.0 0.00 0.01 0.01 96 1010.6
20260509083324 55 214 0.0 2.0 0.00 0.01 0.01 96 1010.5
20260509082819 55 210 0.0 2.0 0.00 0.01 0.01 96 1010.4
20260509082314 55 216 0.0 0.0 0.00 0.01 0.01 96 1010.4
20260509081828 55 211 0.0 0.0 0.00 0.01 0.01 96 1010.4
20260509081323 55 224 0.0 0.0 0.00 0.01 0.01 95 1010.4
20260509080821 55 223 0.0 0.0 0.00 0.01 0.01 95 1010.4
20260509080316 55 224 0.0 1.0 0.00 0.01 0.01 96 1010.5
20260509075851 55 225 0.0 1.0 0.00 0.01 0.01 96 1010.5
20260509075325 55 210 0.0 1.0 0.00 0.01 0.01 96 1010.5
20260509074819 56 218 0.0 3.0 0.00 0.01 0.01 96 1010.6
20260509074313 56 216 1.0 3.0 0.00 0.01 0.01 96 1010.5
20260509073829 56 219 0.0 3.0 0.01 0.01 0.01 96 1010.5
20260509073323 56 221 1.0 4.0 0.01 0.01 0.01 96 1010.5
20260509072818 56 224 2.0 4.0 0.01 0.01 0.01 96 1010.4
20260509072316 56 217 1.0 3.0 0.01 0.01 0.01 96 1010.4
20260509071831 56 213 1.0 2.0 0.01 0.01 0.01 96 1010.5
20260509071326 56 218 0.0 2.0 0.01 0.01 0.01 97 1010.6
20260509070822 56 221 1.0 4.0 0.01 0.01 0.01 97 1010.6
20260509070317 56 218 2.0 4.0 0.01 0.01 0.01 97 1010.6
20260509065832 56 216 1.0 2.0 0.01 0.01 0.01 97 1010.5
20260509065347 56 205 0.0 1.0 0.01 0.01 0.01 97 1010.5
20260509064821 55 219 0.0 0.0 0.01 0.01 0.01 96 1010.4
20260509064320 55 219 0.0 0.0 0.01 0.01 0.01 96 1010.4
20260509063814 55 219 0.0 0.0 0.00 0.00 0.00 96 1010.4
20260509063329 55 218 0.0 0.0 0.00 0.00 0.00 96 1010.4
20260509062824 56 218 0.0 0.0 0.00 0.00 0.00 96 1010.6
20260509062321 56 237 0.0 0.0 0.00 0.00 0.00 96 1010.6
20260509061815 56 237 0.0 0.0 0.00 0.00 0.00 96 1010.5
20260509061329 56 237 0.0 0.0 0.00 0.00 0.00 96 1010.7
20260509060824 56 237 0.0 0.0 0.00 0.00 0.00 96 1010.6
20260509060321 56 237 0.0 1.0 0.00 0.00 0.00 97 1010.6
20260509055820 56 217 0.0 1.0 0.00 0.00 0.00 97 1010.6
20260509055314 56 219 0.0 1.0 0.00 0.00 0.00 97 1010.7
20260509054848 56 210 0.0 1.0 0.00 0.00 0.00 97 1010.7
20260509054321 55 223 0.0 0.0 0.00 0.00 0.00 97 1010.8
20260509053816 55 223 0.0 0.0 0.00 0.00 0.00 97 1010.8
20260509053331 54 206 0.0 0.0 0.00 0.00 0.00 96 1010.8
20260509052825 54 206 0.0 0.0 0.00 0.00 0.00 95 1010.8
20260509052319 55 206 0.0 0.0 0.00 0.00 0.00 95 1010.8
20260509051818 55 206 0.0 0.0 0.00 0.00 0.00 96 1010.7
20260509051313 55 206 0.0 0.0 0.00 0.00 0.00 95 1010.8
20260509050829 55 206 0.0 0.0 0.00 0.00 0.00 95 1010.8
20260509050323 55 206 0.0 0.0 0.00 0.00 0.00 95 1010.7
20260509045818 56 206 0.0 0.0 0.00 0.00 0.00 95 1010.8
20260509045334 56 206 0.0 0.0 0.00 0.00 0.00 95 1010.8
20260509044828 56 206 0.0 0.0 0.00 0.00 0.00 95 1010.7
20260509044343 56 206 0.0 0.0 0.00 0.00 0.00 95 1010.8
20260509043822 57 206 0.0 0.0 0.00 0.00 0.00 95 1010.8
20260509043315 57 206 0.0 0.0 0.00 0.00 0.00 95 1010.7
20260509042830 57 206 0.0 0.0 0.00 0.00 0.00 95 1010.7
20260509042345 57 198 0.0 0.0 0.00 0.00 0.00 94 1010.7
20260509041819 57 198 0.0 0.0 0.00 0.00 0.00 95 1010.7
20260509041313 57 198 0.0 0.0 0.00 0.00 0.00 95 1010.7
20260509040847 57 198 0.0 0.0 0.00 0.00 0.00 94 1010.6
20260509040321 57 137 0.0 0.0 0.00 0.00 0.00 94 1010.6
20260509035816 57 137 0.0 0.0 0.00 0.00 0.00 94 1010.6
20260509035334 57 137 0.0 0.0 0.00 0.00 0.00 93 1010.5
20260509034848 58 137 0.0 0.0 0.00 0.00 0.00 93 1010.5
20260509034321 58 137 0.0 0.0 0.00 0.00 0.00 92 1010.5
20260509033836 58 137 0.0 0.0 0.00 0.00 0.00 92 1010.5
20260509033330 59 137 0.0 0.0 0.00 0.00 0.00 92 1010.4
20260509032825 59 137 0.0 0.0 0.00 0.00 0.00 92 1010.5
20260509032320 60 136 0.0 0.0 0.00 0.00 0.00 92 1010.4
20260509031854 60 137 0.0 0.0 0.00 0.00 0.00 91 1010.4
20260509031327 60 135 0.0 0.0 0.00 0.00 0.00 91 1010.4
20260509030821 61 135 0.0 0.0 0.00 0.00 0.00 91 1010.3
20260509030338 61 135 0.0 0.0 0.00 0.00 0.00 90 1010.1
20260509025831 61 135 0.0 0.0 0.00 0.00 0.00 90 1010.1
20260509025326 61 214 0.0 0.0 0.00 0.00 0.00 90 1010.1
20260509024820 61 213 0.0 0.0 0.00 0.00 0.00 90 1010.1
20260509024315 61 212 0.0 0.0 0.00 0.00 0.00 90 1009.9
20260509023830 62 311 0.0 0.0 0.00 0.00 0.00 89 1010.0
20260509023325 62 311 0.0 0.0 0.00 0.00 0.00 89 1010.0
20260509022820 62 309 0.0 0.0 0.00 0.00 0.00 89 1010.0
20260509022319 62 58 0.0 1.0 0.00 0.00 0.00 89 1009.9
20260509021814 62 317 0.0 2.0 0.00 0.00 0.00 88 1009.8
20260509021329 62 318 0.0 2.0 0.00 0.00 0.00 87 1009.5
20260509020824 62 317 0.0 2.0 0.00 0.00 0.00 87 1009.4
20260509020318 62 319 0.0 2.0 0.00 0.00 0.00 86 1009.3
20260509015832 63 290 0.0 2.0 0.00 0.00 0.00 86 1009.1
20260509015328 63 320 0.0 1.0 0.00 0.00 0.00 85 1009.0
20260509014822 63 319 0.0 3.0 0.00 0.00 0.00 84 1008.9
20260509014321 63 295 1.0 3.0 0.00 0.00 0.00 84 1008.8
20260509013814 63 277 0.0 6.0 0.00 0.00 0.00 83 1008.7
20260509013349 64 340 2.0 6.0 0.00 0.00 0.00 82 1008.6
20260509012822 64 317 1.0 7.0 0.00 0.00 0.00 80 1008.5
20260509012339 65 273 2.0 7.0 0.00 0.00 0.00 79 1008.3
20260509011813 65 292 1.0 3.0 0.00 0.00 0.00 78 1008.2
20260509011328 65 319 0.0 1.0 0.00 0.00 0.00 77 1007.9
20260509010823 64 285 0.0 2.0 0.00 0.00 0.00 77 1007.7
20260509010323 64 197 0.0 2.0 0.00 0.00 0.00 79 1007.3
20260509005818 64 232 0.0 0.0 0.00 0.00 0.00 80 1007.0
20260509005314 65 165 0.0 0.0 0.00 0.00 0.00 79 1006.7
20260509004829 66 165 0.0 0.0 0.00 0.00 0.00 78 1006.5
20260509004324 67 165 0.0 0.0 0.00 0.00 0.00 75 1006.6
20260509003839 67 163 0.0 1.0 0.00 0.00 0.00 73 1006.5
20260509003333 67 207 0.0 1.0 0.00 0.00 0.00 71 1006.6
20260509002827 68 199 0.0 0.0 0.00 0.00 0.00 70 1006.8
20260509002326 68 210 0.0 0.0 0.00 0.00 0.00 69 1007.0
20260509001822 68 226 0.0 3.0 0.00 0.00 0.00 68 1007.0
20260509001336 68 213 0.0 2.0 0.00 0.00 0.00 68 1007.0
20260509000830 68 168 1.0 2.0 0.00 0.00 0.00 67 1006.9
20260509000326 68 271 0.0 1.0 0.00 0.00 0.00 67 1007.0
20260508235840 68 217 0.0 1.0 0.00 0.00 0.00 67 1006.8
20260508235313 69 191 0.0 0.0 0.00 0.00 0.00 67 1006.4
20260508234828 69 191 0.0 3.0 0.00 0.00 0.00 67 1006.1
20260508234322 69 166 1.0 4.0 0.00 0.00 0.00 65 1006.4
20260508233817 70 141 0.0 5.0 0.00 0.00 0.00 64 1006.6
20260508233316 70 151 2.0 5.0 0.00 0.00 0.00 63 1006.7
20260508232830 70 186 2.0 4.0 0.00 0.00 0.00 62 1006.7
20260508232324 71 195 1.0 6.0 0.00 0.00 0.00 60 1006.9
20260508231817 71 185 2.0 6.0 0.00 0.00 0.00 59 1006.9
20260508231331 71 215 1.0 5.0 0.00 0.00 0.00 58 1007.4
20260508230825 72 209 1.0 4.0 0.00 0.00 0.00 58 1007.6
20260508230319 72 167 1.0 5.0 0.00 0.00 0.00 58 1007.7
20260508225813 72 223 2.0 8.0 0.00 0.00 0.00 55 1008.1
20260508225326 72 215 1.0 8.0 0.00 0.00 0.00 55 1008.2
20260508224820 73 215 2.0 5.0 0.00 0.00 0.00 55 1008.2
20260508224319 73 190 1.0 4.0 0.00 0.00 0.00 59 1008.3
20260508223813 73 220 2.0 4.0 0.00 0.00 0.00 58 1008.4
20260508223327 73 220 0.0 1.0 0.00 0.00 0.00 60 1008.6
20260508222822 73 228 0.0 0.0 0.00 0.00 0.00 59 1008.6
20260508222317 73 210 0.0 0.0 0.00 0.00 0.00 59 1008.5
20260508221852 74 208 0.0 0.0 0.00 0.00 0.00 57 1008.6
20260508221326 74 238 0.0 0.0 0.00 0.00 0.00 58 1008.6
20260508220821 74 219 0.0 0.0 0.00 0.00 0.00 56 1008.7
20260508220319 74 223 0.0 0.0 0.00 0.00 0.00 57 1008.7
20260508215854 74 221 0.0 4.0 0.00 0.00 0.00 56 1008.7
20260508215329 75 228 0.0 4.0 0.00 0.00 0.00 53 1008.6
20260508214823 75 196 0.0 3.0 0.00 0.00 0.00 52 1008.7